CAPE
0 0 0 0 0 0 0 0 0 32 115 65 84 159 132 46 150 111 337 259 949 1290 1764 1719 1668 1511 1382 1451 1240 1096 938 858 1193 1426 1356 1084 787 657 719 987 1050 792 344 408 584 713 671 295 395
0 0 0 0 0 0 0 0 0 0 37 5 120 172 152 204 505 446 477 616 1142 1363 1529 1453 1612 1421 1379 1397 1266 1161 1039 859 1125 1399 1372 1177 904 643 489 809 894 528 370 284 210 206 213 232 201
0 0 0 0 0 0 0 0 0 20 42 18 136 282 125 658 543 404 388 739 1231 1398 1465 1481 1551 1380 1378 1351 1261 1191 1118 853 1055 1333 1298 1092 859 777 643 592 678 370 256 214 175 140 126 46 0
0 0 0 0 0 0 0 0 0 137 78 18 32 255 106 557 635 510 443 714 988 1237 1490 1732 1531 1409 1353 1327 1234 1199 1177 948 1016 1192 1126 931 597 601 556 590 541 420 66 86 103 61 0 0 0
0 0 0 0 0 0 0 0 0 0 1 3 167 305 520 571 567 585 432 594 948 1197 1469 1545 1618 1509 1384 1375 1266 1223 1165 1009 996 1164 1014 851 794 794 652 548 465 238 77 28 4 0 0 0 0
0 0 0 0 0 0 0 0 0 0 0 448 823 1111 679 591 471 455 283 705 972 1082 1377 1512 1684 1495 1325 1355 1279 1188 1071 1003 978 1033 1059 871 897 883 685 497 411 316 232 114 12 14 2 7 26
0 0 0 0 0 0 0 0 0 0 1 586 868 795 482 521 444 326 449 530 902 941 1198 1381 1386 1391 1426 1313 1201 1108 1020 991 935 942 904 830 894 731 522 289 172 127 64 54 21 12 18 26 39
0 0 0 0 0 0 0 0 0 0 150 650 397 56 428 448 627 372 337 344 709 914 900 1174 943 1210 1043 992 1236 1092 1034 966 861 898 854 787 797 641 533 206 170 234 139 65 22 17 25 14 10
0 0 0 0 0 0 0 1 1 899 716 1056 1240 427 361 472 488 375 179 122 245 606 762 911 809 842 769 848 943 1066 857 838 855 867 838 491 169 198 160 238 274 552 399 313 221 140 103 112 164
0 0 0 0 0 0 0 17 10 555 1451 1104 820 632 756 571 290 220 128 49 2 132 418 642 656 630 630 791 842 594 388 450 391 360 340 57 0 0 7 175 698 698 755 579 396 276 262 302 0
0 0 0 0 0 0 0 0 0 130 739 1117 799 694 591 413 307 232 139 98 21 0 23 89 196 233 286 261 555 298 206 152 110 95 99 0 0 0 1 0 51 310 478 213 121 88 8 0 0
0 0 0 0 0 0 0 0 0 0 0 1042 686 681 551 414 290 346 218 138 180 48 0 0 0 0 0 41 53 0 0 0 0 0 0 0 2 63 130 58 66 46 108 25 0 1 0 0 0
0 0 0 0 0 0 0 0 4 0 0 1072 829 458 471 300 408 407 290 205 275 181 0 0 0 0 0 0 0 0 0 0 0 0 5 63 228 543 589 457 122 242 116 30 3 28 143 126 50
0 0 0 0 0 0 0 0 0 0 0 834 681 354 207 50 29 468 320 332 367 275 0 0 0 0 0 0 0 0 68 111 220 438 312 485 712 1131 862 656 490 567 550 715 742 471 489 732 742
0 0 0 0 0 0 0 0 0 0 7 714 741 527 238 128 434 498 653 348 357 342 178 2 11 66 106 274 294 98 534 596 641 759 763 736 894 1052 733 553 508 1076 1642 1361 1548 1241 1049 850 593
0 0 0 0 0 0 0 0 0 0 0 231 550 444 357 286 450 700 722 555 315 273 254 126 168 391 312 452 519 682 828 767 880 706 934 1081 1149 1156 1061 1182 1551 1702 1495 1279 1185 1125 1112 892 609
0 0 0 0 0 0 0 0 0 0 0 703 657 537 374 312 310 804 544 498 425 349 267 244 554 1104 1196 1189 734 942 1071 1052 1062 1039 1112 1211 1219 988 1183 1750 1726 1662 1495 1292 1218 1061 784 580 203
0 0 0 0 0 0 0 0 0 0 0 412 1012 545 438 357 302 126 321 305 438 557 480 389 1224 1528 1425 1186 974 1026 965 881 1313 1551 1434 1593 1729 1794 1829 1841 1822 1512 1362 1171 945 582 180 0 0
0 0 0 0 0 0 0 0 0 0 0 130 916 666 281 1 81 6 40 58 138 243 213 305 830 1513 1391 1326 1069 990 729 1311 1714 1503 1621 1709 1867 2040 1987 1792 1381 1062 537 334 34 0 0 0 0
0 0 0 0 0 0 0 0 0 0 0 0 308 518 308 200 108 26 39 131 218 84 36 5 69 1176 1414 1377 1145 953 1340 1575 1841 1598 1664 1808 1993 1897 1394 1075 557 322 16 0 0 0 0 0 0
0 0 0 0 0 0 0 0 0 0 435 373 218 248 443 435 205 101 56 63 38 167 81 211 119 429 923 1285 1098 1194 1353 1481 1585 1708 1835 2040 2025 1520 372 70 2 0 0 0 0 0 0 0 0
0 0 0 0 0 0 0 0 0 0 366 548 310 291 433 348 370 148 119 132 107 67 35 41 31 16 404 1293 1285 1284 1346 1587 1540 1608 1791 1580 1410 484 0 0 0 0 0 0 0 0 0 0 0
0 0 0 0 0 0 0 0 0 0 331 599 801 670 473 461 433 355 291 228 111 14 21 3 0 211 535 916 1304 1400 1329 1389 1447 1526 1378 1249 355 0 0 0 0 0 0 0 0 0 0 0 0
0 0 0 0 0 0 0 0 0 0 0 520 782 816 775 666 524 356 161 59 29 1 3 0 0 32 245 977 1186 1192 1132 1262 1138 1091 878 207 0 0 0 0 0 0 0 0 0 0 0 0 0
0 0 0 0 0 0 0 0 0 0 0 129 498 550 548 469 355 141 11 24 22 18 0 2 0 0 76 450 1065 1195 1223 1053 971 791 297 74 0 0 0 0 0 0 0 0 0 0 0 0 0
0 0 0 0 0 0 0 0 0 0 0 85 163 169 193 159 59 27 93 224 257 103 114 0 0 170 357 681 940 981 861 706 487 488 196 0 0 0 0 0 0 0 0 0 0 0 0 0 0
0 0 0 0 0 0 0 0 0 0 0 188 143 117 129 85 60 232 405 346 315 476 576 36 0 11 483 990 789 387 516 748 533 253 2 0 0 0 0 0 0 0 0 0 0 0 0 0 0
0 0 0 0 3 0 0 0 0 0 0 0 205 155 137 116 255 275 353 447 708 923 886 785 829 842 1223 821 507 442 553 471 201 0 0 0 0 0 0 0 0 0 0 0 0 0 0 0 0
0 0 0 0 0 0 0 0 0 0 0 0 275 264 261 142 254 220 277 425 1033 1082 628 523 654 653 481 355 472 361 305 188 1 0 0 0 0 0 0 0 0 0 0 0 0 0 0 0 0
0 5 0 0 0 0 3 0 60 11 0 21 176 285 344 242 234 165 246 910 800 749 720 513 419 336 263 294 243 208 188 32 0 0 0 0 0 0 0 0 0 0 0 0 0 0 0 0 0
CIN
0 0 0 0 0 0 0 0 0 -151 -85 -287 -66 -74 -84 -165 -78 -86 -499 -450 -466 -246 -106 -112 -126 -143 -161 -151 -186 -198 -219 -242 -149 -92 -91 -125 -175 -183 -146 -84 -60 -79 -176 -139 -93 -74 -94 -148 -134
0 0 0 0 0 0 0 0 0 0 -171 -54 -77 -86 -39 -40 -313 -402 -416 -564 -446 -292 -170 -177 -150 -180 -176 -163 -188 -201 -210 -247 -167 -98 -90 -107 -147 -198 -233 -146 -103 -143 -174 -194 -203 -188 -190 -181 -177
0 0 0 0 0 0 0 0 0 -143 -182 -21 -123 -191 -147 -340 -361 -442 -371 -550 -387 -287 -208 -186 -164 -181 -197 -191 -197 -208 -220 -272 -205 -128 -116 -140 -164 -177 -196 -196 -157 -207 -226 -227 -243 -253 -238 -272 0
0 0 0 0 0 0 0 0 0 -66 -51 -204 -84 -76 -179 -216 -320 -349 -643 -536 -428 -310 -213 -148 -171 -174 -177 -186 -202 -206 -203 -245 -216 -164 -157 -183 -241 -230 -227 -211 -219 -219 -344 -314 -318 -335 -9 0 0
0 0 0 0 0 0 0 0 0 -28 -26 -25 -51 -107 -166 -248 -210 -211 -227 -565 -448 -330 -235 -183 -173 -172 -181 -179 -194 -188 -207 -236 -226 -175 -191 -210 -209 -197 -221 -234 -241 -288 -343 -387 -384 0 0 0 0
0 0 0 0 0 0 0 0 0 0 0 -68 -150 -163 -175 -175 -122 -163 -417 -455 -402 -361 -284 -212 -159 -194 -211 -207 -223 -227 -235 -250 -241 -212 -192 -216 -181 -176 -214 -256 -263 -266 -279 -318 -264 -399 -155 -180 -343
0 0 0 0 0 0 0 0 0 0 -15 -41 -317 -303 -211 -69 -47 -100 -369 -390 -318 -315 -293 -255 -237 -241 -209 -237 -262 -275 -277 -265 -252 -233 -224 -225 -200 -217 -256 -303 -334 -327 -362 -364 -363 -387 -372 -326 -319
0 0 0 0 0 0 0 0 0 0 -69 -140 -27 -147 -311 -89 -60 -106 -364 -450 -357 -345 -333 -264 -294 -238 -261 -272 -230 -250 -259 -266 -283 -252 -242 -241 -221 -247 -272 -345 -339 -302 -322 -347 -361 -391 -395 -329 -332
0 0 0 0 0 0 0 -10 -78 -83 -83 -112 -145 -212 -306 -213 -59 -127 -360 -446 -447 -359 -349 -320 -349 -336 -335 -292 -271 -235 -269 -264 -252 -231 -233 -321 -429 -408 -395 -368 -329 -234 -259 -273 -288 -285 -298 -308 -288
0 0 0 0 0 0 0 -25 -51 -54 -113 -172 -195 -190 -191 -125 -156 -145 -391 -452 -255 -551 -453 -375 -388 -395 -356 -303 -284 -353 -413 -387 -393 -382 -370 -505 0 0 -214 -388 -239 -213 -192 -208 -244 -250 -252 -255 0
0 0 0 0 0 0 0 0 0 -125 -82 -78 -167 -189 -137 -147 -190 -136 -194 -395 -264 0 -729 -586 -533 -548 -498 -477 -381 -466 -506 -532 -540 -530 -514 0 0 0 -74 0 -429 -316 -266 -291 -316 -313 -48 0 0
0 0 0 0 0 0 0 0 0 -17 0 -115 -180 -219 -160 -125 -206 -192 -218 -186 -289 -176 0 0 0 0 0 -591 -573 0 0 0 0 0 0 0 -43 -309 -275 -248 -223 -228 -315 -373 0 -29 0 0 0
0 0 0 0 0 0 0 0 -28 0 0 -107 -18 -96 -87 -138 -135 -297 -288 -272 -286 -239 0 0 0 0 0 0 0 0 0 0 0 0 -149 -360 -265 -171 -150 -193 -225 -168 -193 -221 -88 -193 -98 -115 -133
0 0 0 0 0 0 0 0 0 0 0 -91 -24 -31 -28 -25 -178 -258 -229 -275 -244 -184 -132 0 -408 0 0 0 0 0 -237 -246 -311 -249 -277 -236 -170 -89 -114 -113 -130 -96 -92 -54 -24 -34 -33 -40 -41
0 0 0 0 0 0 0 0 0 0 -29 -82 -143 -40 -40 -390 -350 -195 -61 -198 -142 -155 -205 -580 -538 -532 -378 -281 -314 -577 -245 -231 -201 -160 -151 -135 -133 -80 -90 -106 -95 -37 -14 -16 0 -5 -3 -17 -28
0 0 0 0 0 0 0 0 0 0 0 -120 -160 -111 -253 -363 -271 -102 -108 -65 -107 -103 -136 -107 -479 -410 -313 -254 -199 -190 -166 -178 -148 -144 -86 -68 -91 -45 -58 -45 -26 -5 -9 -11 -7 -5 -3 -9 -15
0 0 0 0 0 0 0 0 0 0 0 -120 -110 -185 -216 -213 -216 -114 -75 -63 -132 -280 -119 -57 -263 -184 -98 -144 -160 -96 -80 -123 -141 -216 -157 -58 -50 -75 -61 -26 -8 -7 -6 -8 -4 -7 -9 -10 -41
0 0 0 0 0 0 0 0 0 0 0 -209 -126 -110 -52 -35 -26 -357 -80 -43 -5 -95 -70 -60 -47 -18 -21 -63 -59 -96 -32 -54 -82 -98 -106 -66 -53 -36 -22 -9 -3 -14 -11 -12 -12 -31 -52 0 0
0 0 0 0 0 0 0 0 0 0 0 -361 -112 -43 -35 -1 -163 -250 -29 -145 -2 -55 -1 -28 -3 -28 -17 -30 -119 -59 -41 -108 -96 -144 -51 -29 -21 -10 -4 -6 -8 -9 -78 -82 -106 0 0 0 0
0 0 0 0 0 0 0 0 0 0 0 0 -179 -107 -72 -343 -50 -410 -315 -125 -54 -89 -290 -7 -6 -34 -55 -49 -17 -20 -68 -72 -61 -62 -41 -23 -7 -2 -6 -7 -81 -101 -127 0 0 0 0 0 0
0 0 0 0 0 0 0 0 0 0 -286 -346 -365 -193 -119 -219 -233 -114 -107 -194 -31 -206 -181 -1 -12 -7 -16 -14 -91 -102 -33 -49 -66 -33 -14 -1 -1 -3 -86 -245 -58 0 0 0 0 0 0 0 0
0 0 0 0 0 0 0 0 0 0 -302 -247 -345 -331 -275 -317 -289 -283 -34 -43 -30 -40 -85 -14 -16 -4 -1 -23 -91 -56 -13 -37 -56 -24 -11 -17 -4 -65 0 0 0 0 0 0 0 0 0 0 0
0 0 0 0 0 0 0 0 0 0 -221 -220 -175 -205 -118 -262 -213 -61 -72 -48 -99 -112 -178 -168 0 -34 -6 -31 -54 -65 -31 -37 -46 -34 -23 -17 -51 0 0 0 0 0 0 0 0 0 0 0 0
0 0 0 0 0 0 0 0 0 0 0 -208 -113 -139 -122 -118 -117 -94 -90 -227 -149 -90 -266 0 0 -344 -3 -9 -25 -41 -51 -49 -62 -41 -26 -64 0 0 0 0 0 0 0 0 0 0 0 0 0
0 0 0 0 0 0 0 0 0 0 0 -380 -196 -187 -163 -134 -153 -160 -249 -409 -293 -246 0 -486 0 0 -22 -37 -16 -40 -35 -50 -42 -29 -36 -78 0 0 0 0 0 0 0 0 0 0 0 0 0
0 0 0 0 0 0 0 0 0 0 0 -271 -268 -190 -267 -337 -218 -204 -117 -149 -246 -147 -127 -1 0 -88 -2 -1 -39 -64 -55 -56 -46 -30 -35 0 0 0 0 0 0 0 0 0 0 0 0 0 0
0 0 0 0 0 0 0 0 0 0 0 -284 -305 -203 -145 -360 -391 -164 -147 -264 -208 -59 -13 -387 0 -256 -13 -12 -32 -63 -25 -8 -39 -52 -6 0 0 0 0 0 0 0 0 0 0 0 0 0 0
0 0 0 0 -8 0 0 0 0 0 0 0 -283 -160 -68 -113 -200 -223 -195 -149 -126 -32 -19 -17 -3 -11 -7 -32 -39 -41 -30 -44 -46 0 0 0 0 0 0 0 0 0 0 0 0 0 0 0 0
0 0 0 0 0 0 0 0 0 0 0 0 -292 -204 -70 -71 -267 -305 -177 -162 -59 -49 -22 -37 -43 -38 -39 -50 -49 -38 -46 -63 -17 0 0 0 0 0 0 0 0 0 0 0 0 0 0 0 0
0 -4 0 0 0 0 -34 0 -66 -17 0 -245 -281 -257 -101 -181 -184 -141 -88 -89 -15 -38 -36 -29 -54 -53 -63 -61 -85 -80 -82 -97 0 0 0 0 0 0 0 0 0 0 0 0 0 0 0 0 0
Wind_Speed
nan nan nan nan nan nan nan nan nan nan 24 nan nan 14 16 nan 10 5 8 6 13 2 2 7 13 15 14 13 13 13 13 14 15 14 13 13 11 11 12 13 15 18 18 19 19 20 20 19 17
nan nan nan nan nan nan nan nan nan nan nan nan 33 18 11 13 14 10 11 9 13 9 4 8 14 16 15 13 13 14 14 15 15 14 13 13 12 12 14 16 17 19 19 19 20 20 21 20 17
nan nan nan nan nan nan nan nan nan nan nan nan 35 34 22 17 19 12 18 15 17 14 9 10 16 15 16 14 12 13 15 16 16 16 15 13 13 14 14 16 17 18 19 19 21 22 22 nan nan
nan nan nan nan nan nan nan nan nan 24 nan nan nan 25 29 24 27 23 26 22 19 18 14 15 16 16 15 13 11 12 13 14 15 17 15 15 16 16 16 17 17 17 nan nan 22 nan nan nan nan
nan nan nan nan nan nan nan nan nan nan nan nan 21 18 19 34 44 35 27 24 24 21 19 17 20 19 15 12 10 10 12 13 14 16 17 17 17 17 17 15 16 18 nan nan nan nan nan nan nan
nan nan nan nan nan nan nan nan nan nan nan 17 20 17 34 31 29 24 25 25 25 25 23 18 20 20 17 14 13 11 11 13 14 16 17 18 17 17 16 15 16 19 19 19 nan nan nan nan nan
nan nan nan nan nan nan nan nan nan nan nan 16 19 28 26 35 26 22 30 30 27 24 24 20 17 17 15 14 13 13 13 14 15 15 17 18 18 16 15 14 17 16 nan nan nan nan nan nan nan
nan nan nan nan nan nan nan nan nan nan 30 33 28 nan 25 26 24 29 30 30 25 22 21 21 18 18 17 14 15 14 14 15 15 16 17 16 15 14 15 16 16 16 18 nan nan nan nan nan nan
nan nan nan nan nan nan nan nan nan 41 41 42 26 26 35 35 13 26 32 31 25 22 21 19 20 18 18 19 16 15 14 15 16 16 16 15 13 12 13 16 16 15 17 19 19 20 21 22 24
nan nan nan nan nan nan nan nan nan 41 36 34 31 40 14 29 29 28 29 nan nan 18 19 18 20 24 24 21 21 21 19 21 19 17 15 nan nan nan nan 14 16 14 16 16 18 18 21 23 nan
nan nan nan nan nan nan nan nan nan 46 38 32 19 31 31 34 25 30 33 nan nan nan nan nan 21 23 24 25 26 25 24 22 21 nan nan nan nan nan nan nan nan 16 14 18 18 nan nan nan nan
nan nan nan nan nan nan nan nan nan nan nan 22 27 22 31 32 27 8 16 8 24 nan nan nan nan nan nan nan nan nan nan nan nan nan nan nan nan nan 16 nan nan nan 19 nan nan nan nan nan nan
nan nan nan nan nan nan nan nan nan nan nan 31 30 36 29 21 22 25 14 21 24 29 nan nan nan nan nan nan nan nan nan nan nan nan nan nan 21 19 19 21 20 18 19 nan nan nan 30 29 nan
nan nan nan nan nan nan nan nan nan nan nan 40 38 26 27 nan nan 41 34 37 39 37 nan nan nan nan nan nan nan nan nan 31 30 26 23 22 23 23 23 25 16 20 24 25 29 33 35 36 34
nan nan nan nan nan nan nan nan nan nan nan 40 37 34 30 45 52 58 46 33 25 21 30 nan nan nan 32 31 30 nan 30 30 29 27 25 26 27 27 27 25 25 23 28 32 37 37 37 37 35
nan nan nan nan nan nan nan nan nan nan nan 52 42 49 53 52 52 57 56 48 49 36 37 45 41 37 35 33 34 30 29 29 29 31 27 24 28 31 30 29 29 29 30 34 36 39 40 39 37
nan nan nan nan nan nan nan nan nan nan nan 61 53 53 53 51 58 62 59 52 45 57 58 44 45 42 41 47 43 42 31 39 34 36 33 30 33 33 36 35 31 35 37 41 43 43 46 45 42
nan nan nan nan nan nan nan nan nan nan nan 61 56 61 56 53 52 62 62 57 43 54 64 73 46 48 53 48 55 45 41 48 43 42 37 39 35 39 40 39 38 39 40 39 42 45 44 nan nan
nan nan nan nan nan nan nan nan nan nan nan 59 62 66 64 nan nan nan nan nan 51 63 71 79 54 47 49 54 52 44 46 45 44 46 48 42 39 39 36 41 43 41 44 44 nan nan nan nan nan
nan nan nan nan nan nan nan nan nan nan nan nan 59 65 64 67 67 nan nan 41 31 nan nan nan nan 43 51 63 57 46 34 30 40 45 47 41 40 38 40 44 46 46 nan nan nan nan nan nan nan
nan nan nan nan nan nan nan nan nan nan 46 55 60 59 63 66 65 70 nan nan nan 59 nan 47 44 49 47 48 60 54 46 43 47 31 29 32 39 42 41 nan nan nan nan nan nan nan nan nan nan
nan nan nan nan nan nan nan nan nan nan 43 39 46 54 56 59 62 59 50 56 51 nan nan nan nan nan 38 49 52 50 42 25 23 25 28 29 31 37 nan nan nan nan nan nan nan nan nan nan nan
nan nan nan nan nan nan nan nan nan nan 48 42 38 43 51 53 58 57 54 52 52 nan nan nan nan 56 27 40 50 53 22 12 21 26 27 29 33 nan nan nan nan nan nan nan nan nan nan nan nan
nan nan nan nan nan nan nan nan nan nan nan 42 43 40 48 52 57 58 56 nan nan nan nan nan nan nan 46 25 18 12 17 25 31 28 30 28 nan nan nan nan nan nan nan nan nan nan nan nan nan
nan nan nan nan nan nan nan nan nan nan nan 39 37 43 46 50 54 55 nan nan nan nan nan nan nan nan nan 24 9 16 28 33 30 28 27 nan nan nan nan nan nan nan nan nan nan nan nan nan nan
nan nan nan nan nan nan nan nan nan nan nan nan 39 43 47 47 nan nan nan 45 52 50 49 nan nan 60 13 11 13 19 24 27 28 24 33 nan nan nan nan nan nan nan nan nan nan nan nan nan nan
nan nan nan nan nan nan nan nan nan nan nan 48 43 48 47 nan nan 38 41 38 37 41 47 nan nan nan 33 38 26 28 27 25 28 28 nan nan nan nan nan nan nan nan nan nan nan nan nan nan nan
nan nan nan nan nan nan nan nan nan nan nan nan 38 38 43 37 39 42 47 45 28 36 36 42 50 59 60 35 31 36 35 32 40 nan nan nan nan nan nan nan nan nan nan nan nan nan nan nan nan
nan nan nan nan nan nan nan nan nan nan nan nan 23 27 44 39 27 38 35 44 39 37 36 35 35 50 45 37 36 41 44 44 nan nan nan nan nan nan nan nan nan nan nan nan nan nan nan nan nan
nan nan nan nan nan nan nan nan nan nan nan nan 21 21 26 30 32 28 26 28 34 45 43 39 32 34 33 34 37 38 42 nan nan nan nan nan nan nan nan nan nan nan nan nan nan nan nan nan nan
Wind_Direction
nan nan nan nan nan nan nan nan nan nan 178 nan nan 210 226 nan 123 198 219 211 281 268 344 301 304 303 306 307 308 307 308 302 299 293 289 285 287 297 308 318 322 320 323 330 335 337 336 339 343
nan nan nan nan nan nan nan nan nan nan nan nan 172 188 221 213 196 238 231 277 270 272 262 272 297 298 297 304 306 308 311 308 302 296 290 288 293 299 312 321 321 318 324 329 335 340 340 338 340
nan nan nan nan nan nan nan nan nan nan nan nan 191 188 186 218 249 224 254 262 261 255 238 262 283 287 291 295 300 311 314 312 308 298 293 294 296 303 312 315 316 322 325 331 336 337 339 nan nan
nan nan nan nan nan nan nan nan nan 200 nan nan nan 216 204 199 226 233 264 270 260 259 252 266 270 270 278 289 304 309 307 304 302 302 295 296 303 306 309 315 320 324 nan nan 337 nan nan nan nan
nan nan nan nan nan nan nan nan nan nan nan nan 248 221 208 195 243 257 265 264 268 271 272 264 279 278 284 290 295 293 294 296 298 295 295 300 301 305 312 314 316 323 nan nan nan nan nan nan nan
nan nan nan nan nan nan nan nan nan nan nan 233 239 242 190 205 233 257 254 253 257 270 274 264 275 282 289 293 290 284 283 287 287 292 299 298 299 304 308 311 320 327 331 338 nan nan nan nan nan
nan nan nan nan nan nan nan nan nan nan nan 213 231 225 190 182 212 232 236 237 243 252 264 261 259 274 285 284 282 280 275 277 281 292 292 299 303 303 307 313 323 333 nan nan nan nan nan nan nan
nan nan nan nan nan nan nan nan nan nan 221 244 254 nan 272 215 197 233 234 233 233 247 260 266 259 246 235 235 263 261 263 272 284 288 296 299 298 306 311 322 333 339 342 nan nan nan nan nan nan
nan nan nan nan nan nan nan nan nan 197 227 220 247 259 265 290 243 244 229 223 226 233 242 257 267 255 246 228 235 249 265 266 271 279 289 282 271 291 312 318 334 336 337 344 351 351 354 2 6
nan nan nan nan nan nan nan nan nan 200 211 216 229 256 259 285 261 272 255 nan nan 230 237 238 242 242 237 234 229 227 236 236 243 249 255 nan nan nan nan 315 328 331 329 336 338 339 345 343 nan
nan nan nan nan nan nan nan nan nan 199 201 214 248 271 299 286 305 258 257 nan nan nan nan nan 247 252 247 237 231 225 227 232 237 nan nan nan nan nan nan nan nan 296 315 312 316 nan nan nan nan
nan nan nan nan nan nan nan nan nan nan nan 217 256 253 270 273 295 244 237 241 291 nan nan nan nan nan nan nan nan nan nan nan nan nan nan nan nan nan 291 nan nan nan 305 nan nan nan nan nan nan
nan nan nan nan nan nan nan nan nan nan nan 220 242 247 255 241 250 243 245 262 261 272 nan nan nan nan nan nan nan nan nan nan nan nan nan nan 280 285 283 293 298 298 300 nan nan nan 321 321 nan
nan nan nan nan nan nan nan nan nan nan nan 215 238 249 249 nan nan 226 242 260 262 274 nan nan nan nan nan nan nan nan nan 257 250 248 262 279 280 283 285 288 282 288 294 300 303 300 303 309 317
nan nan nan nan nan nan nan nan nan nan nan 222 229 244 246 234 233 237 231 257 262 251 263 nan nan nan 250 255 254 nan 251 254 259 254 256 271 278 284 280 276 273 278 287 289 298 302 303 309 316
nan nan nan nan nan nan nan nan nan nan nan 242 238 241 247 244 245 247 239 234 228 227 245 251 249 258 254 257 246 240 245 253 255 255 257 268 276 277 283 286 282 288 294 300 302 307 308 305 309
nan nan nan nan nan nan nan nan nan nan nan 231 244 245 248 252 254 245 235 220 212 229 218 232 245 248 251 250 242 235 238 248 252 256 258 262 265 277 278 281 287 291 295 299 303 303 305 307 309
nan nan nan nan nan nan nan nan nan nan nan 230 235 239 242 244 242 246 239 228 207 218 223 214 215 235 240 245 244 243 233 230 236 246 252 259 264 270 277 279 283 292 293 295 301 304 306 nan nan
nan nan nan nan nan nan nan nan nan nan nan 228 233 236 238 nan nan nan nan nan 202 214 210 211 206 230 234 232 236 226 222 228 238 252 255 258 263 264 270 283 285 293 296 302 nan nan nan nan nan
nan nan nan nan nan nan nan nan nan nan nan nan 241 242 247 241 243 nan nan 275 276 nan nan nan nan 221 243 240 234 220 220 231 237 240 245 249 260 269 276 280 285 295 nan nan nan nan nan nan nan
nan nan nan nan nan nan nan nan nan nan 224 226 234 245 249 258 251 249 nan nan nan 271 nan 263 205 210 216 238 245 220 218 229 240 250 260 276 283 279 279 nan nan nan nan nan nan nan nan nan nan
nan nan nan nan nan nan nan nan nan nan 224 226 239 247 253 260 259 251 255 253 257 nan nan nan nan nan 195 230 232 242 226 225 243 261 263 266 274 282 nan nan nan nan nan nan nan nan nan nan nan
nan nan nan nan nan nan nan nan nan nan 222 236 240 246 251 254 253 254 251 255 254 nan nan nan nan 272 293 221 233 234 243 254 249 253 278 287 285 nan nan nan nan nan nan nan nan nan nan nan nan
nan nan nan nan nan nan nan nan nan nan nan 236 247 253 252 245 248 258 254 nan nan nan nan nan nan nan 251 217 207 260 283 263 257 258 288 289 nan nan nan nan nan nan nan nan nan nan nan nan nan
nan nan nan nan nan nan nan nan nan nan nan 256 269 272 272 258 261 265 nan nan nan nan nan nan nan nan nan 166 229 264 257 266 278 302 296 nan nan nan nan nan nan nan nan nan nan nan nan nan nan
nan nan nan nan nan nan nan nan nan nan nan nan 257 270 273 274 nan nan nan 275 281 281 279 nan nan 290 295 237 275 280 288 289 284 295 286 nan nan nan nan nan nan nan nan nan nan nan nan nan nan
nan nan nan nan nan nan nan nan nan nan nan 248 251 259 272 nan nan 273 272 272 283 306 289 nan nan nan 280 287 287 280 259 259 277 284 nan nan nan nan nan nan nan nan nan nan nan nan nan nan nan
nan nan nan nan nan nan nan nan nan nan nan nan 247 258 245 226 244 259 258 271 280 301 288 279 270 264 277 281 278 273 257 279 278 nan nan nan nan nan nan nan nan nan nan nan nan nan nan nan nan
nan nan nan nan nan nan nan nan nan nan nan nan 245 261 250 234 244 250 268 269 263 275 281 282 275 281 278 274 269 258 271 272 nan nan nan nan nan nan nan nan nan nan nan nan nan nan nan nan nan
nan nan nan nan nan nan nan nan nan nan nan nan 248 253 254 226 221 248 258 267 259 261 268 266 263 267 268 269 262 262 266 nan nan nan nan nan nan nan nan nan nan nan nan nan nan nan nan nan nan